Preview of NWS' New Version of Forecast
This preview is not operational and should not be used for support decisions.

Regional Weather Roundup (RWR)

Issued by National Weather Service (NWS)

                            
000
ASUS43 KLSX 250757
RWRMO 

WEATHER SUMMARY FOR MISSOURI
NATIONAL WEATHER SERVICE SPRINGFIELD MO
300 AM CDT SUN AUG 25 2019

NOTE: "FAIR" INDICATES FEW OR NO CLOUDS BELOW 12,000 FEET WITH NO
       SIGNIFICANT WEATHER AND/OR OBSTRUCTIONS TO VISIBILITY.
       CURRENT SKY AND/OR WEATHER CONDITIONS ARE NOT AVAILABLE FOR
       CHILLICOTHE AND FARMINGTON.

MOZ001>031-035>038-043-044-053-054-250900-
...NORTHERN AND WESTERN MISSOURI...
  
CITY           SKY/WX    TMP DP  RH WIND       PRES   REMARKS
KANSAS CTY INT CLOUDY    69  61  75 SE12      29.98F                  
LEE'S SUMMIT   CLOUDY    69  60  73 SE10G17   29.99S                  
ST JOSEPH      CLOUDY    69  60  73 E8        29.98F                  
CHILLICOTHE      N/A     67  59  75 VRB5      30.02F                  
     
$$
MOZ066>068-077>081-088>096-101>105-250900-
...SOUTHWEST MISSOURI...
  
CITY           SKY/WX    TMP DP  RH WIND       PRES   REMARKS
SPRINGFIELD    CLOUDY    68  63  84 S10G18    29.98F                  
JOPLIN         CLOUDY    70  68  93 SE8       29.97S                  
               
$$
MOZ032>034-039>042-045>050-055>058-069>072-250900-
...CENTRAL MISSOURI...  
  
CITY           SKY/WX    TMP DP  RH WIND       PRES   REMARKS
COLUMBIA       NOT AVBL                                               
JEFFERSON CITY CLOUDY    66  62  87 E5        30.02F                  
ROLLA          MOCLDY    65  59  81 E6        30.02F                  
SEDALIA        CLOUDY    65  62  90 E7        30.00F                  
WARRENSBURG    CLOUDY    68  61  77 E5        29.99F                  
               
$$
MOZ051-052-059>065-250900-
...EAST CENTRAL MISSOURI...
  
CITY           SKY/WX    TMP DP  RH WIND       PRES   REMARKS
ST LOUIS INTL  CLOUDY    69  58  67 E6        30.04F                  
                   
$$
MOZ072>076-082>087-097>100-106>115-250900-
...SOUTH CENTRAL AND SOUTHEAST MISSOURI...
  
CITY           SKY/WX    TMP DP  RH WIND       PRES   REMARKS
CAPE GIRARDEAU CLOUDY    70  62  76 E3        30.00F                  
POPLAR BLUFF   CLOUDY    70  63  78 NE7       29.99F                  
WEST PLAINS    CLOUDY    65  63  93 E5        30.03F                  
                                       
$$